Location: Newark
(21.1200°N, 73.4000°E)
Time: 01:49:19
(UTC+00:00)

SR - Pass Details

Date: 31 January 2020
Orbit: 575 x 881 km, 66.7° (Epoch: 21 February)

Event Time Altitude Azimuth Distance (km) Brightness Sun altitude
Rises 01:20:58 0° 345° (NNW) 3,243 ? -6.0°
Reaches altitude 10° 01:23:32 10° 350° (N) 2,264 ? -5.4°
Maximum altitude 01:28:31 49° 65° (ENE) 894 ? -4.3°
Drops below altitude 10° 01:33:03 10° 141° (SE) 2,064 ? -3.3°
Sets 01:35:18 0° 146° (SSE) 2,929 ? -2.8°
